User: anonymous   Login
Location: Zagreb
(45.8000°N, 16.0000°E)
Time: 03:14:51
(UTC+01:00)
Language:

CAS-4B - Orbit

View from above orbital plane
View from above orbital plane
View from above satellite
View from above satellite

Ground track
Ground track

The orbit data is extracted from the following two-line orbital elements,

1 42759U 17034B   21018.73843344  .00000177  00000-0  24086-4 0  9999
2 42759  43.0180 284.0588 0011041 304.0501 103.0349 15.10044635198513
Epoch (UTC): 18 January 2021 17:43:20
Eccentricity: 0.0011041
inclination: 43.0180°
perigee height: 528 km
apogee height: 544 km
right ascension of ascending node: 284.0588°
argument of perigee: 304.0501°
revolutions per day: 15.10044635
mean anomaly at epoch: 103.0349°
orbit number at epoch: 19851

The dashed part of the orbit path shows where the satellite is in the earth's shadow,  

DLR